Вернуться в каталог

ARIANE 5 R/B

АктивенHEO
NORAD 35944·ROCKET BODY·🇫🇷 France

Запущен Sep 30, 2009 с Guiana Space Centre

Loading…

Ближайшие Пролёты (ближайшие 24 часа)

TLE

СвежийSource: Space-Track

Эпоха: Sep 13, 2026, 00:44 UTC

1 35944U 09054C   26256.03078619  .00010336  00000-0  10813-2 0  9996
2 35944   3.4449 108.9127 6832020 248.8392  29.5732  2.88729659156327

Отслеживайте ARIANE 5 R/B в реальном времени с AllMySat

Download on the App Store